Location: Harwich
(41.7160°N, 69.9939°W)
Time: 07:13:09
(UTC+02:00)

A-11 Canister half - Pass Details

Date: 06 December 2023
Orbit: 1524 x 1684 km, 47.3° (Epoch: 07 October)

Event Time Altitude Azimuth Distance (km) Brightness Sun altitude
Rises 02:57:47 0° 270° (W) 4,937 12.2 -52.7°
Reaches altitude 10° 03:01:02 10° 274° (W) 3,947 11.5 -53.3°
Enters shadow 03:05:32 30° 284° (WNW) 2,670 10.4 -54.1°
Maximum altitude 03:11:08 65° 356° (N) 1,808 - -55.1°
Drops below altitude 10° 03:21:00 10° 77° (ENE) 3,864 - -56.8°
Sets 03:24:09 0° 81° (E) 4,830 - -57.3°
